This is the latest recevied weather packets stored in our database for station/object KD8FRE. If no packets are shown the sender has not sent any weather packets the latest 10 day(s).
| Time | Temp. | Humidity | Pressure | Rain* | Wind** | Luminosity | Snow |
|---|---|---|---|---|---|---|---|
| 1777759549 | 8.33° C | 42% | 1016.2 hPa | 0 mm | - | 87 W/m² | - |
| 1777759246 | 8.33° C | 42% | 1016.4 hPa | 0 mm | - | 104 W/m² | - |
| 1777758943 | 8.33° C | 42% | 1016.4 hPa | 0 mm | - | 156 W/m² | - |
| 1777758337 | 8.33° C | 43% | 1016.4 hPa | 0 mm | - | 110 W/m² | - |
| 1777757731 | 7.78° C | 45% | 1016.3 hPa | 0 mm | - | 90 W/m² | - |
| 1777757429 | 7.78° C | 44% | 1016.5 hPa | 0 mm | - | 89 W/m² | - |
| 1777757128 | 7.78° C | 44% | 1016.3 hPa | 0 mm | - | 97 W/m² | - |
| 1777756825 | 7.78° C | 45% | 1016.4 hPa | 0 mm | - | 107 W/m² | - |
| 1777756521 | 7.78° C | 44% | 1016.6 hPa | 0 mm | - | 99 W/m² | - |
| 1777755915 | 7.78° C | 44% | 1016.8 hPa | 0 mm | - | 137 W/m² | - |
| 1777754097 | 7.78° C | 44% | 1016.5 hPa | 0 mm | - | 97 W/m² | - |
| 1777753793 | 7.78° C | 45% | 1016.8 hPa | 0 mm | - | 130 W/m² | - |
| 1777753490 | 7.78° C | 45% | 1016.7 hPa | 0 mm | - | 269 W/m² | - |
| 1777753189 | 7.78° C | 43% | 1016.8 hPa | 0 mm | - | 168 W/m² | - |
| 1777752884 | 7.78° C | 44% | 1016.8 hPa | 0 mm | - | 259 W/m² | - |
| 1777752581 | 7.78° C | 45% | 1016.8 hPa | 0 mm | - | 180 W/m² | - |
| 1777752277 | 7.22° C | 45% | 1017 hPa | 0 mm | - | 163 W/m² | - |
| 1777751975 | 7.22° C | 44% | 1017.2 hPa | 0 mm | - | 156 W/m² | - |
| 1777751368 | 7.22° C | 44% | 1017.1 hPa | 0 mm | - | 231 W/m² | - |
| 1777751065 | 7.22° C | 44% | 1017.2 hPa | 0 mm | - | 222 W/m² | - |
| 1777750760 | 7.22° C | 44% | 1017.1 hPa | 0 mm | - | 195 W/m² | - |
| 1777750458 | 7.22° C | 42% | 1017.3 hPa | 0 mm | - | 177 W/m² | - |
| 1777749850 | 7.22° C | 45% | 1017.5 hPa | 0 mm | - | 252 W/m² | - |
| 1777749548 | 7.22° C | 44% | 1017.5 hPa | 0 mm | - | 168 W/m² | - |
| 1777749245 | 7.22° C | 43% | 1017.4 hPa | 0 mm | - | 113 W/m² | - |
* Rain latest hour (hover to see other rain measurements)
** Current wind speed in m/s (hover to see current wind gust speed)